User: anonymous   Login
Location: Hartman Creek State Park
(44.3257°N, 89.2134°W)
Time: 02:02:18
(UTC-05:00)
Language:

Terra - Orbit

View from above orbital plane
View from above orbital plane
View from above satellite
View from above satellite

Ground track
Ground track

The orbit data is extracted from the following two-line orbital elements,

1 25994U 99068A   14296.72011679  .00000739  00000-0  17397-3 0  7544
2 25994 098.2001 009.6042 0001414 098.1264 262.0088 14.57127207789783
Epoch (UTC): 23 October 2014 17:16:58
Eccentricity: 0.0001414
inclination: 98.2001°
perigee height: 701 km
apogee height: 703 km
right ascension of ascending node: 9.6042°
argument of perigee: 98.1264°
revolutions per day: 14.57127207
mean anomaly at epoch: 262.0088°
orbit number at epoch: 78978

The dashed part of the orbit path shows where the satellite is in the earth's shadow,  

DLR